Location: Oberwangen
(47.4286°N, 8.9679°E)
Time: 19:41:25
(UTC+00:00)

Cosmos 1953 Rocket - Pass Details

Date: 25 October 2021
Orbit: 603 x 635 km, 82.5° (Epoch: 03 December)

Event Time Altitude Azimuth Distance (km) Brightness Sun altitude
Rises 20:16:21 0° 330° (NNW) 2,942 7.7 -39.9°
Reaches altitude 10° 20:20:15 10° 296° (WNW) 2,021 6.9 -40.5°
Enters shadow 20:20:28 10° 293° (WNW) 1,999 6.8 -40.5°
